Location: Izdebno
(52.6670°N, 16.2170°E)
Time: 10:19:01
(UTC+02:00)

A-11 Canister half - Pass Details

Date: 23 February 2024
Orbit: 1513 x 1686 km, 47.2° (Epoch: 24 April)

Event Time Altitude Azimuth Distance (km) Brightness Sun altitude
Exits shadow 02:25:40 39° 133° (SE) 2,337 9.8 -39.2°
Drops below altitude 10° 02:33:27 10° 83° (E) 3,870 11.6 -38.4°
Sets 02:36:47 0° 76° (ENE) 4,834 12.4 -38.0°
